Ana Sayfa
METAR-TAF:

METAR-TAF

Havaalanları :

Esperance, Avustralya

Enlem: 33-41-04S, Boylam: 121-49-22E, yükseklik: 143 m

Güncel hava durumu gözlemi

Rapor saat 22:00 UTC de 1 saat ve 21 dakika önce yapıldı.
Rüzgar doğu/kuzeydoğudan 5 kt
Sıcaklık 15°C
Nem 63%
Basınç 1023 hPa
Görüş mesafesi 10 km veya daha fazla
2700 ft yükseklikte çok bulutlu

METAR: YESP 082200Z AUTO 07005KT 9999 // OVC027 15/08 Q1023

Saat: 07:21 (23:21 UTC)


TAF: eksik

4.000'den fazla havaalanı için hava durumu gözlemleri ve tahminleri (METAR ve TAF raporları).

Kullanılabilir istasyonlar harita üzerinde sarı ve kırmızı noktalarla gösterilir.

İstasyonun adını görmek için fareyi noktanın üzerinde gezdirin.

Sonrasında hava gözlem ve tahminlerini görmek için tıklayın.

Haritayı değiştirmek için: yaklaştırmak için siyah artı işaretli yeşil düğmeye ve uzaklaştırmak için de eksi işaretli düğmeye hızla tıklayın; bitişik haritalar için yeşil okları kullanın.


METAR-TAF: